Halifax, Nova Scotia

10:30 PM ADT on March 29, 2017 (GMT -0300)
Halifax International

Weather History for CYHZ - November, 2013

Change the Weather History Date:

Wednesday, November 20, 2013

  Actual Average Record
Temperature  
Mean Temperature 28 °F -  
Max Temperature 31 °F 38 °F 60 °F (2003)
Min Temperature 24 °F 23 °F 19 °F (2000)
Degree Days  
Heating Degree Days 36    
Moisture  
Dew Point 15 °F    
Average Humidity 56    
Maximum Humidity 93    
Minimum Humidity 26    
Precipitation  
Precipitation 0.00 in 0.21 in - ()
Sea Level Pressure  
Sea Level Pressure 30.08 in    
Wind  
Wind Speed 17 mph ()    
Max Wind Speed 31 mph    
Max Gust Speed 40 mph    
Visibility 14.4 miles    
Events Snow    
Averages and records for this station are not official NWS values.
T = Trace of Precipitation, MM = Missing Value Source: Averaged Metar Reports

Daily Weather History Graph

Daily Weather History Graph

Search for Another Location

Airport or City:

Trip Planner

Search our weather history database for the weather conditions in past years. The results will help you decide how hot, cold, wet, or windy it might be!

Date:

Astronomy

Nov. 20, 2013 Rise Set
Actual Time 7:18 AM AST 4:40 PM AST
Civil Twilight 6:46 AM AST 5:12 PM AST
Nautical Twilight 6:10 AM AST 5:48 PM AST
Astronomical Twilight 5:35 AM AST 6:23 PM AST
Moon 7:19 PM AST (11/20) 9:40 AM AST (11/20)
Length of Visible Light 10h 26m
Length of Day
9h 22m
Waning Gibbous, 91% of the Moon is Illuminated
Nov 20
Waning Gibbous
Nov 25
Last Quarter
Dec 2
New
Dec 9
First Quarter
Dec 17
Full

Hourly Weather History & Observations

Time (AST) Temp. Windchill Dew Point Humidity Pressure Visibility Wind Dir Wind Speed Gust Speed Precip Events Conditions
12:00 AM 32.0 °F - 23.0 °F 69% 29.84 in 15.0 mi North - - N/A Snow Light Snow Showers
12:30 AM 32.0 °F 22.1 °F 23.0 °F 69% 29.86 in 2.0 mi West 13.8 mph - N/A Snow Light Snow Showers
12:49 AM 28.4 °F 18.5 °F 26.6 °F 93% 29.87 in 10.0 mi WNW 11.5 mph 21.9 mph N/A Snow Light Snow Showers
1:00 AM 30.2 °F 20.8 °F 26.6 °F 86% 29.87 in 15.0 mi WNW 11.5 mph 18.4 mph N/A Snow Light Snow Showers
2:00 AM 31 °F - 23 °F 62% 29.89 in 15 mi WNW 12.7 mph - - Snow Light Snow Showers
2:00 AM 32.0 °F 21.2 °F 23.0 °F 69% 29.89 in 15.0 mi WNW 16.1 mph - N/A Snow Light Snow Showers
2:45 AM 30.2 °F 15.2 °F 15.8 °F 55% 29.91 in 15.0 mi NW 29.9 mph 39.1 mph N/A   Mostly Cloudy
3:00 AM 30.2 °F 17.4 °F 17.6 °F 60% 29.91 in 15.0 mi NW 20.7 mph 31.1 mph N/A   Overcast
3:27 AM 30.2 °F 19.3 °F 17.6 °F 60% 29.92 in 15.0 mi NW 15.0 mph 23.0 mph N/A Snow Light Snow Showers
4:00 AM 30.2 °F 17.8 °F 19.4 °F 64% 29.93 in 15.0 mi NNW 19.6 mph 27.6 mph N/A Snow Light Snow Showers
5:00 AM 28.4 °F 17.0 °F 21.2 °F 74% 29.96 in 15.0 mi NW 15.0 mph 24.2 mph N/A Snow Light Snow Showers
6:00 AM 28.4 °F 14.7 °F 15.8 °F 59% 29.99 in 15.0 mi NW 21.9 mph 32.2 mph N/A   Overcast
7:00 AM 26.6 °F 10.6 °F 12.2 °F 55% 30.01 in 15.0 mi NW 28.8 mph 40.3 mph N/A   Mostly Cloudy
8:00 AM 27 °F - 14 °F 45% 30.06 in 15 mi NW 25.3 mph - -   Partly Cloudy
8:00 AM 26.6 °F 12.0 °F 14.0 °F 59% 30.06 in 15.0 mi NW 23.0 mph 33.4 mph N/A   Mostly Cloudy
9:00 AM 26.6 °F 10.0 °F 12.2 °F 55% 30.08 in 15.0 mi NW 31.1 mph 38.0 mph N/A   Mostly Cloudy
10:00 AM 28.4 °F 13.8 °F 12.2 °F 51% 30.11 in 15.0 mi NW 25.3 mph 33.4 mph N/A   Mostly Cloudy
11:00 AM 28.4 °F 14.1 °F 12.2 °F 51% 30.13 in 15.0 mi NW 24.2 mph 38.0 mph N/A   Mostly Cloudy
12:00 PM 28.4 °F 13.3 °F 12.2 °F 51% 30.13 in 15.0 mi NW 27.6 mph 38.0 mph N/A   Overcast
1:00 PM 28.4 °F 13.5 °F 14.0 °F 55% 30.15 in 15.0 mi NNW 26.5 mph 35.7 mph N/A   Mostly Cloudy
2:00 PM 29 °F - 13 °F 38% 30.16 in 15 mi NW 25.3 mph - -   Mostly Cloudy
2:00 PM 28.4 °F 15.1 °F 14.0 °F 55% 30.16 in 15.0 mi NNW 20.7 mph 39.1 mph N/A   Mostly Cloudy
3:00 PM 28.4 °F 13.8 °F 14.0 °F 55% 30.18 in 15.0 mi NNW 25.3 mph 35.7 mph N/A   Mostly Cloudy
4:00 PM 28.4 °F 15.1 °F 12.2 °F 51% 30.21 in 15.0 mi NW 20.7 mph 28.8 mph N/A   Mostly Cloudy
5:00 PM 26.6 °F 14.7 °F 12.2 °F 55% 30.22 in 15.0 mi NNW 15.0 mph 23.0 mph N/A   Partly Cloudy
6:00 PM 26.6 °F 14.3 °F 10.4 °F 51% 30.25 in 15.0 mi NNW 16.1 mph 23.0 mph N/A   Clear
7:00 PM 28.4 °F 15.1 °F 5.0 °F 37% 30.27 in 15.0 mi NNW 20.7 mph 32.2 mph N/A   Clear
8:00 PM 27 °F - 6 °F 26% 30.29 in 15 mi NNW 23.0 mph - -  
8:00 PM 26.6 °F 12.7 °F 5.0 °F 40% 30.29 in 15.0 mi NNW 20.7 mph 32.2 mph N/A   Clear
9:00 PM 26.6 °F 12.0 °F 6.8 °F 43% 30.31 in 15.0 mi NNW 23.0 mph 32.2 mph N/A   Partly Cloudy
10:00 PM 26.6 °F 11.1 °F 8.6 °F 47% 30.32 in 15.0 mi NW 26.5 mph 35.7 mph N/A   Partly Cloudy
11:00 PM 24.8 °F 10.0 °F 8.6 °F 50% 30.34 in 15.0 mi NW 21.9 mph 32.2 mph N/A   Partly Cloudy